Time,TemperatureF,DewpointF,PressureIn,WindDirection,WindDirectionDegrees,WindSpeedMPH,WindSpeedGustMPH,Humidity,HourlyPrecipIn,Conditions,Clouds,dailyrainin,SoftwareType,DateUTC
2013-11-04 00:14:00,75.8,63.0,30.08,NE,48,5.0,17.0,64,0.00,,,0.00,weatherlink.com 1.10,2013-11-04 05:14:00,
2013-11-04 00:28:00,75.8,62.0,30.08,NE,51,9.0,14.0,63,0.00,,,0.00,weatherlink.com 1.10,2013-11-04 05:28:00,
2013-11-04 00:42:00,75.6,63.0,30.08,NE,40,12.0,16.0,64,0.00,,,0.00,weatherlink.com 1.10,2013-11-04 05:42:00,
2013-11-04 01:00:00,75.6,63.0,30.09,NE,53,9.0,15.0,64,0.00,,,0.00,weatherlink.com 1.10,2013-11-04 06:00:00,
2013-11-04 01:13:00,75.5,61.0,30.09,NNE,23,10.0,17.0,61,0.00,,,0.00,weatherlink.com 1.10,2013-11-04 06:13:00,
2013-11-04 01:29:00,75.5,61.0,30.08,NE,44,13.0,16.0,61,0.00,,,0.00,weatherlink.com 1.10,2013-11-04 06:29:00,
2013-11-04 01:43:00,75.3,62.0,30.08,NE,53,6.0,16.0,63,0.00,,,0.00,weatherlink.com 1.10,2013-11-04 06:43:00,
2013-11-04 01:59:00,75.2,62.0,30.08,NNE,33,10.0,16.0,64,0.00,,,0.00,weatherlink.com 1.10,2013-11-04 06:59:00,
2013-11-04 02:13:00,75.2,62.0,30.08,NE,37,11.0,13.0,63,0.00,,,0.00,weatherlink.com 1.10,2013-11-04 07:13:00,
2013-11-04 02:29:00,75.3,61.0,30.08,NE,52,10.0,17.0,61,0.00,,,0.00,weatherlink.com 1.10,2013-11-04 07:29:00,
2013-11-04 02:43:00,75.3,62.0,30.08,NE,40,9.0,18.0,63,0.00,,,0.00,weatherlink.com 1.10,2013-11-04 07:43:00,
2013-11-04 02:59:00,75.3,62.0,30.08,NE,51,5.0,15.0,64,0.00,,,0.00,weatherlink.com 1.10,2013-11-04 07:59:00,
2013-11-04 03:13:00,75.1,61.0,30.08,NE,44,9.0,14.0,62,0.00,,,0.00,weatherlink.com 1.10,2013-11-04 08:13:00,
2013-11-04 03:29:00,74.9,61.0,30.08,ENE,61,14.0,17.0,62,0.00,,,0.00,weatherlink.com 1.10,2013-11-04 08:29:00,
2013-11-04 03:44:00,74.8,60.0,30.08,NNW,347,6.0,15.0,60,0.00,,,0.00,weatherlink.com 1.10,2013-11-04 08:44:00,
2013-11-04 03:59:00,74.6,60.0,30.07,NW,322,2.0,12.0,60,0.00,,,0.00,weatherlink.com 1.10,2013-11-04 08:59:00,
2013-11-04 04:15:00,74.6,59.0,30.07,NNW,342,3.0,13.0,59,0.00,,,0.00,weatherlink.com 1.10,2013-11-04 09:15:00,
2013-11-04 04:29:00,74.4,59.0,30.07,NNW,346,1.0,10.0,60,0.00,,,0.00,weatherlink.com 1.10,2013-11-04 09:29:00,
2013-11-04 04:45:00,74.4,59.0,30.07,NE,54,2.0,10.0,59,0.00,,,0.00,weatherlink.com 1.10,2013-11-04 09:45:00,
2013-11-04 04:59:00,74.5,60.0,30.08,NNE,22,1.0,12.0,60,0.00,,,0.00,weatherlink.com 1.10,2013-11-04 09:59:00,
2013-11-04 05:15:00,74.4,59.0,30.08,NE,43,5.0,10.0,58,0.00,,,0.00,weatherlink.com 1.10,2013-11-04 10:15:00,
2013-11-04 05:29:00,74.0,60.0,30.08,NE,53,6.0,8.0,61,0.00,,,0.00,weatherlink.com 1.10,2013-11-04 10:29:00,
2013-11-04 05:45:00,74.4,59.0,30.08,NE,51,4.0,9.0,59,0.00,,,0.00,weatherlink.com 1.10,2013-11-04 10:45:00,
2013-11-04 05:59:00,74.2,59.0,30.09,NE,41,2.0,8.0,59,0.00,,,0.00,weatherlink.com 1.10,2013-11-04 10:59:00,
2013-11-04 06:15:00,74.1,58.0,30.09,NE,36,3.0,8.0,57,0.00,,,0.00,weatherlink.com 1.10,2013-11-04 11:15:00,
2013-11-04 06:30:00,74.9,58.0,30.09,NNE,29,2.0,12.0,55,0.00,,,0.00,weatherlink.com 1.10,2013-11-04 11:30:00,
2013-11-04 06:46:00,74.8,58.0,30.10,NE,47,6.0,7.0,56,0.00,,,0.00,weatherlink.com 1.10,2013-11-04 11:46:00,
2013-11-04 07:00:00,75.7,59.0,30.11,NE,50,9.0,13.0,57,0.00,,,0.00,weatherlink.com 1.10,2013-11-04 12:00:00,
2013-11-04 07:15:00,76.1,59.0,30.11,NE,34,8.0,11.0,56,0.00,,,0.00,weatherlink.com 1.10,2013-11-04 12:15:00,
2013-11-04 07:31:00,76.6,59.0,30.11,NE,52,7.0,14.0,54,0.00,,,0.00,weatherlink.com 1.10,2013-11-04 12:31:00,
2013-11-04 07:45:00,76.2,63.0,30.12,NE,47,9.0,15.0,64,0.00,,,0.00,weatherlink.com 1.10,2013-11-04 12:45:00,
2013-11-04 08:01:00,75.2,62.0,30.12,NNE,33,6.0,19.0,64,0.00,,,0.00,weatherlink.com 1.10,2013-11-04 13:01:00,
2013-11-04 08:15:00,74.5,64.0,30.12,NNE,30,7.0,11.0,70,0.00,,,0.00,weatherlink.com 1.10,2013-11-04 13:15:00,
2013-11-04 08:31:00,75.9,63.0,30.12,East,81,15.0,20.0,65,0.00,,,0.00,weatherlink.com 1.10,2013-11-04 13:31:00,
2013-11-04 08:46:00,76.3,64.0,30.13,NE,40,13.0,19.0,65,0.00,,,0.00,weatherlink.com 1.10,2013-11-04 13:46:00,
2013-11-04 09:01:00,76.1,64.0,30.14,NE,44,18.0,23.0,66,0.00,,,0.00,weatherlink.com 1.10,2013-11-04 14:01:00,
2013-11-04 09:16:00,75.6,65.0,30.14,ENE,60,12.0,16.0,69,0.00,,,0.00,weatherlink.com 1.10,2013-11-04 14:16:00,
2013-11-04 09:30:00,76.7,64.0,30.14,NNE,29,20.0,22.0,66,0.00,,,0.00,weatherlink.com 1.10,2013-11-04 14:30:00,
2013-11-04 09:46:00,77.8,65.0,30.13,NE,37,13.0,19.0,65,0.00,,,0.00,weatherlink.com 1.10,2013-11-04 14:46:00,
2013-11-04 10:02:00,77.8,65.0,30.13,NE,36,16.0,21.0,65,0.00,,,0.00,weatherlink.com 1.10,2013-11-04 15:02:00,
2013-11-04 10:16:00,77.1,65.0,30.14,NE,44,9.0,23.0,67,0.00,,,0.00,weatherlink.com 1.10,2013-11-04 15:16:00,
2013-11-04 10:31:00,77.0,66.0,30.14,ENE,65,12.0,19.0,68,0.00,,,0.00,weatherlink.com 1.10,2013-11-04 15:31:00,
2013-11-04 10:46:00,77.7,66.0,30.13,NE,36,16.0,20.0,68,0.00,,,0.00,weatherlink.com 1.10,2013-11-04 15:46:00,
2013-11-04 11:02:00,77.4,68.0,30.13,NNE,30,11.0,23.0,72,0.00,,,0.00,weatherlink.com 1.10,2013-11-04 16:02:00,
2013-11-04 11:16:00,76.6,68.0,30.13,NE,36,7.0,19.0,75,0.00,,,0.00,weatherlink.com 1.10,2013-11-04 16:16:00,
2013-11-04 11:32:00,76.1,68.0,30.12,NNW,340,10.0,16.0,76,0.00,,,0.00,weatherlink.com 1.10,2013-11-04 16:32:00,
2013-11-04 11:46:00,77.0,67.0,30.11,North,8,12.0,22.0,70,0.00,,,0.00,weatherlink.com 1.10,2013-11-04 16:46:00,
2013-11-04 12:02:00,77.2,67.0,30.11,NE,53,10.0,20.0,71,0.00,,,0.00,weatherlink.com 1.10,2013-11-04 17:02:00,
2013-11-04 12:16:00,78.5,68.0,30.11,NE,43,13.0,20.0,71,0.00,,,0.00,weatherlink.com 1.10,2013-11-04 17:16:00,
2013-11-04 12:32:00,77.9,67.0,30.10,NE,36,14.0,23.0,70,0.00,,,0.00,weatherlink.com 1.10,2013-11-04 17:32:00,
2013-11-04 12:46:00,77.5,67.0,30.10,NE,43,11.0,22.0,71,0.00,,,0.00,weatherlink.com 1.10,2013-11-04 17:46:00,
2013-11-04 13:02:00,77.6,68.0,30.09,NNE,27,12.0,20.0,73,0.00,,,0.00,weatherlink.com 1.10,2013-11-04 18:02:00,
2013-11-04 13:16:00,77.9,68.0,30.09,NE,46,8.0,23.0,72,0.00,,,0.00,weatherlink.com 1.10,2013-11-04 18:16:00,
2013-11-04 13:32:00,77.8,68.0,30.09,ENE,67,12.0,18.0,72,0.00,,,0.00,weatherlink.com 1.10,2013-11-04 18:32:00,
2013-11-04 13:46:00,77.8,66.0,30.09,NNE,30,14.0,19.0,68,0.00,,,0.00,weatherlink.com 1.10,2013-11-04 18:46:00,
2013-11-04 14:02:00,78.2,68.0,30.08,NNE,15,14.0,16.0,70,0.00,,,0.00,weatherlink.com 1.10,2013-11-04 19:02:00,
2013-11-04 14:17:00,77.9,67.0,30.09,NNE,30,12.0,18.0,70,0.00,,,0.00,weatherlink.com 1.10,2013-11-04 19:17:00,
2013-11-04 14:33:00,78.6,68.0,30.08,ENE,66,16.0,22.0,71,0.00,,,0.00,weatherlink.com 1.10,2013-11-04 19:33:00,
2013-11-04 14:47:00,77.7,68.0,30.09,ENE,58,12.0,23.0,72,0.00,,,0.00,weatherlink.com 1.10,2013-11-04 19:47:00,
2013-11-04 15:03:00,77.3,67.0,30.09,NNE,26,17.0,23.0,71,0.00,,,0.00,weatherlink.com 1.10,2013-11-04 20:03:00,
2013-11-04 15:17:00,77.6,68.0,30.09,ENE,74,16.0,18.0,71,0.00,,,0.00,weatherlink.com 1.10,2013-11-04 20:17:00,
2013-11-04 15:33:00,77.4,67.0,30.09,NNE,23,13.0,21.0,70,0.00,,,0.00,weatherlink.com 1.10,2013-11-04 20:33:00,
2013-11-04 15:47:00,75.2,67.0,30.10,NNE,29,11.0,23.0,76,0.03,,,0.03,weatherlink.com 1.10,2013-11-04 20:47:00,
2013-11-04 16:03:00,76.0,68.0,30.10,ENE,64,14.0,19.0,75,0.03,,,0.03,weatherlink.com 1.10,2013-11-04 21:03:00,
2013-11-04 16:17:00,76.5,67.0,30.10,NNE,30,14.0,18.0,72,0.03,,,0.03,weatherlink.com 1.10,2013-11-04 21:17:00,
2013-11-04 16:33:00,76.6,67.0,30.10,ENE,64,20.0,20.0,73,0.03,,,0.03,weatherlink.com 1.10,2013-11-04 21:33:00,
2013-11-04 16:47:00,76.8,67.0,30.10,NE,54,12.0,18.0,71,0.00,,,0.03,weatherlink.com 1.10,2013-11-04 21:47:00,
2013-11-04 17:03:00,76.7,67.0,30.10,NE,52,11.0,22.0,71,0.00,,,0.03,weatherlink.com 1.10,2013-11-04 22:03:00,
2013-11-04 17:17:00,76.8,66.0,30.10,NE,43,10.0,21.0,70,0.00,,,0.03,weatherlink.com 1.10,2013-11-04 22:17:00,
2013-11-04 17:33:00,76.8,66.0,30.10,ENE,68,8.0,16.0,70,0.00,,,0.03,weatherlink.com 1.10,2013-11-04 22:33:00,
2013-11-04 17:49:00,76.7,66.0,30.10,NNE,19,13.0,18.0,70,0.00,,,0.03,weatherlink.com 1.10,2013-11-04 22:49:00,
2013-11-04 18:03:00,76.7,66.0,30.11,NNE,33,12.0,19.0,70,0.00,,,0.03,weatherlink.com 1.10,2013-11-04 23:03:00,
2013-11-04 18:19:00,76.8,66.0,30.11,NE,54,11.0,20.0,69,0.00,,,0.03,weatherlink.com 1.10,2013-11-04 23:19:00,
2013-11-04 18:34:00,76.9,67.0,30.11,NNE,23,13.0,18.0,71,0.00,,,0.03,weatherlink.com 1.10,2013-11-04 23:34:00,
2013-11-04 18:49:00,75.5,68.0,30.12,ENE,57,6.0,22.0,77,0.00,,,0.03,weatherlink.com 1.10,2013-11-04 23:49:00,
2013-11-04 19:04:00,75.7,67.0,30.12,ENE,70,17.0,26.0,75,0.00,,,0.03,weatherlink.com 1.10,2013-11-05 00:04:00,
2013-11-04 19:19:00,75.9,67.0,30.12,NE,43,16.0,21.0,74,0.00,,,0.03,weatherlink.com 1.10,2013-11-05 00:19:00,
2013-11-04 19:34:00,75.8,67.0,30.13,NNE,20,12.0,20.0,75,0.00,,,0.03,weatherlink.com 1.10,2013-11-05 00:34:00,
2013-11-04 19:49:00,75.5,65.0,30.13,NE,43,15.0,21.0,71,0.00,,,0.03,weatherlink.com 1.10,2013-11-05 00:49:00,
2013-11-04 20:05:00,76.1,65.0,30.13,NE,49,13.0,19.0,69,0.00,,,0.03,weatherlink.com 1.10,2013-11-05 01:05:00,
2013-11-04 20:19:00,76.2,66.0,30.13,NE,54,14.0,20.0,70,0.00,,,0.03,weatherlink.com 1.10,2013-11-05 01:19:00,
2013-11-04 20:35:00,76.6,66.0,30.13,NE,40,13.0,20.0,70,0.00,,,0.03,weatherlink.com 1.10,2013-11-05 01:35:00,
2013-11-04 20:49:00,76.7,65.0,30.13,ENE,58,9.0,18.0,68,0.00,,,0.03,weatherlink.com 1.10,2013-11-05 01:49:00,
2013-11-04 21:04:00,76.8,65.0,30.13,NE,40,11.0,20.0,68,0.00,,,0.03,weatherlink.com 1.10,2013-11-05 02:04:00,
2013-11-04 21:19:00,76.8,65.0,30.13,ENE,72,9.0,19.0,68,0.00,,,0.03,weatherlink.com 1.10,2013-11-05 02:19:00,
2013-11-04 21:34:00,76.9,65.0,30.13,NNE,26,15.0,19.0,66,0.00,,,0.03,weatherlink.com 1.10,2013-11-05 02:34:00,
2013-11-04 21:50:00,77.1,65.0,30.14,NE,43,9.0,18.0,67,0.00,,,0.03,weatherlink.com 1.10,2013-11-05 02:50:00,
2013-11-04 22:04:00,77.0,65.0,30.14,NE,40,10.0,17.0,67,0.00,,,0.03,weatherlink.com 1.10,2013-11-05 03:04:00,
2013-11-04 22:20:00,76.9,65.0,30.14,NE,51,14.0,21.0,66,0.00,,,0.03,weatherlink.com 1.10,2013-11-05 03:20:00,
2013-11-04 22:35:00,76.7,66.0,30.13,ENE,63,13.0,17.0,69,0.00,,,0.03,weatherlink.com 1.10,2013-11-05 03:35:00,
2013-11-04 22:49:00,76.5,65.0,30.13,East,79,11.0,16.0,68,0.00,,,0.03,weatherlink.com 1.10,2013-11-05 03:49:00,
2013-11-04 23:05:00,76.5,66.0,30.13,NNE,23,10.0,15.0,71,0.00,,,0.03,weatherlink.com 1.10,2013-11-05 04:05:00,
2013-11-04 23:20:00,76.6,66.0,30.13,NE,55,14.0,19.0,69,0.00,,,0.03,weatherlink.com 1.10,2013-11-05 04:20:00,
2013-11-04 23:35:00,76.6,67.0,30.12,NE,46,10.0,19.0,71,0.00,,,0.03,weatherlink.com 1.10,2013-11-05 04:35:00,
2013-11-04 23:50:00,76.5,66.0,30.12,NNE,33,14.0,15.0,69,0.00,,,0.03,weatherlink.com 1.10,2013-11-05 04:50:00,